Wind_Speed
51 51 50 49 48 47 46 44 43 43 43 42 41 41 39 38 37 37 36 36 35 34 34 34 34 34 33 33 33 32 32 31 32 32 31 30 31 30 30 29 29 28 28
53 53 52 51 50 49 47 46 45 44 44 43 43 42 42 41 40 39 38 38 37 37 36 36 35 35 35 35 34 33 33 33 33 33 33 32 32 31 31 31 31 31 30
54 54 53 52 51 50 48 47 46 46 45 45 45 44 44 42 41 40 40 39 39 39 38 37 37 36 36 36 35 35 35 35 34 34 34 34 33 33 33 33 33 33 33
54 54 53 52 51 50 49 49 48 47 46 46 46 45 45 44 42 42 41 41 40 40 39 39 38 38 37 36 36 36 36 35 35 36 36 35 35 34 34 34 34 35 35
54 54 53 52 51 51 50 49 49 48 48 47 47 46 46 45 45 44 43 42 41 41 40 40 39 39 38 38 38 37 36 36 36 36 36 36 35 35 35 35 35 35 35
53 53 52 51 51 50 50 49 49 49 48 48 47 47 47 46 46 45 44 43 43 42 41 41 40 40 39 38 38 38 37 37 37 36 36 36 36 36 36 36 36 36 36
52 51 52 51 51 51 50 50 50 49 49 49 48 48 47 47 46 46 45 44 43 43 43 42 41 41 40 40 40 39 39 38 38 38 37 37 37 37 37 37 37 37 37
51 51 51 51 50 50 50 50 50 50 50 50 49 49 49 48 47 47 46 45 44 43 43 43 42 41 41 41 40 39 39 39 39 39 38 38 38 38 38 38 38 38 38
50 50 51 51 50 50 49 50 50 50 50 50 49 49 49 48 48 47 47 46 45 45 44 44 43 42 42 42 41 41 40 39 39 39 39 39 39 39 39 38 38 38 38
49 49 50 51 51 50 50 50 50 50 50 50 49 49 49 49 48 48 47 46 46 46 45 44 44 44 43 43 43 42 42 41 41 41 40 40 40 40 39 39 39 39 39
48 49 49 50 50 51 50 50 50 50 49 49 49 49 50 49 49 48 48 47 47 46 46 45 45 44 44 44 43 43 43 43 42 41 41 40 40 40 41 41 40 41 41
46 47 48 49 50 50 50 50 50 50 49 49 49 49 50 50 49 49 49 48 48 48 47 46 46 46 45 45 44 44 44 43 43 42 42 42 41 41 42 42 42 42 42
46 47 47 48 49 49 50 50 50 49 49 49 49 49 50 50 50 49 49 49 49 49 48 48 47 47 47 46 45 45 44 45 44 44 44 43 43 43 43 43 43 43 44
44 46 47 47 48 49 49 50 50 50 49 49 49 50 50 50 50 50 50 50 50 49 49 48 48 48 47 47 47 46 46 46 46 45 45 44 44 44 44 44 44 45 45
43 44 46 47 48 49 49 49 50 51 50 50 50 50 50 50 50 50 50 50 50 50 50 49 49 48 47 48 48 48 47 47 47 46 46 46 45 45 45 45 45 45 46
42 44 45 45 47 48 49 49 49 50 51 51 50 49 49 49 50 50 50 50 50 49 49 49 49 49 49 49 49 49 48 47 47 47 47 47 46 46 47 47 47 47 47
39 41 43 44 45 46 47 48 49 49 49 50 51 51 50 50 49 50 50 50 51 50 50 49 49 49 50 49 49 49 49 50 49 49 48 48 48 48 48 48 47 47 47
36 38 40 42 44 46 47 47 48 49 49 49 50 50 50 50 50 50 50 51 50 50 50 50 50 50 50 50 50 50 50 50 50 50 49 49 48 48 48 47 47 47 47
36 37 38 40 41 43 45 46 46 47 48 49 49 49 50 50 50 50 50 50 50 50 50 50 50 50 50 50 50 50 50 50 50 50 50 49 49 48 48 48 48 47 47
34 35 37 38 39 41 42 44 45 46 47 47 48 49 49 49 50 50 50 49 50 50 49 49 50 50 50 50 50 50 50 50 50 49 49 48 48 48 48 48 47 47 46
32 33 34 36 38 39 41 42 43 43 44 45 46 47 47 47 48 49 49 49 49 49 49 49 50 50 50 50 50 50 50 50 50 49 49 48 48 48 47 47 47 47 47
32 32 33 34 35 37 39 40 41 41 42 42 43 44 44 45 46 46 47 48 48 48 48 48 48 48 48 49 49 50 50 50 50 50 49 49 49 49 48 48 48 49 49
31 32 32 32 33 35 36 38 39 40 40 41 41 42 42 43 44 45 46 46 46 46 46 46 46 46 47 47 48 48 49 49 49 49 48 48 49 49 49 49 50 50 50
30 31 31 31 31 33 35 36 37 38 39 39 39 40 40 41 41 41 43 44 45 45 45 46 46 46 46 46 46 47 48 48 48 48 48 48 48 49 49 49 49 50 49
30 30 31 32 32 33 34 35 36 37 38 39 39 39 39 40 40 40 40 41 42 43 44 44 45 45 45 45 46 46 46 46 47 47 47 47 47 47 47 47 47 47 47
29 30 31 31 32 33 34 35 36 37 38 38 38 39 39 40 40 40 40 41 41 41 42 43 43 43 43 44 45 46 46 45 45 45 46 46 46 46 46 46 46 46 47
Wind_Direction
233 233 233 233 234 234 235 235 235 234 234 234 235 236 237 238 239 239 240 242 243 244 244 244 245 245 246 248 249 250 252 254 255 256 257 257 259 260 261 261 262 263 264
232 232 232 233 233 234 234 235 235 235 234 234 235 236 237 238 239 240 241 242 243 244 244 245 246 246 247 248 250 250 253 254 255 256 257 257 258 260 261 262 262 263 265
232 232 232 233 233 234 234 235 235 235 235 235 234 235 236 237 239 240 241 242 243 243 244 245 247 247 248 249 250 251 253 253 254 255 257 257 258 260 261 262 263 263 264
231 232 232 232 233 234 234 234 235 235 235 235 235 235 236 237 238 239 241 242 243 244 245 246 247 248 248 250 251 251 252 253 254 255 257 258 259 261 263 264 264 264 264
231 231 232 232 232 232 233 233 234 235 235 236 235 236 236 237 238 240 241 242 243 244 245 247 247 248 249 250 251 252 253 255 255 257 257 258 259 261 263 264 265 265 265
230 230 230 230 230 231 231 232 233 234 235 235 235 236 236 237 239 240 241 242 243 244 245 247 248 248 249 251 252 252 254 255 256 257 258 259 260 261 262 263 264 265 266
228 228 229 229 230 231 231 231 232 233 234 235 235 236 236 238 239 241 242 242 244 245 245 247 247 248 249 250 251 252 254 255 256 257 258 259 261 262 262 263 264 265 265
228 228 228 229 229 230 230 231 232 233 233 234 235 236 237 238 239 241 242 243 245 246 246 247 247 248 249 249 250 252 254 255 256 257 258 260 261 261 262 263 264 264 265
228 228 228 228 229 230 230 231 232 233 234 234 235 236 237 238 239 241 242 243 245 246 247 247 247 248 249 249 250 252 254 254 256 258 259 259 260 261 261 262 263 264 265
229 229 228 228 229 230 231 231 232 233 234 234 235 235 236 237 239 240 242 243 244 246 247 247 248 248 249 250 251 252 253 254 256 258 259 260 261 261 261 262 262 263 264
229 230 230 230 230 230 231 232 233 234 235 235 236 236 236 237 238 240 241 242 244 245 246 247 248 249 250 251 252 253 254 255 257 258 259 260 261 262 261 262 262 262 263
229 229 229 230 230 231 231 232 233 234 234 235 236 236 237 237 238 240 241 242 243 244 245 246 247 248 249 250 251 253 254 255 257 258 258 260 260 262 262 263 263 263 263
228 228 229 229 230 230 231 232 234 235 235 235 236 236 237 238 239 240 241 242 243 244 245 246 247 248 248 250 251 253 253 255 256 257 258 259 260 261 262 262 263 264 264
228 228 228 228 229 230 231 232 233 234 235 236 236 237 237 238 239 240 241 242 243 245 246 246 247 248 249 250 251 252 253 255 257 258 258 259 260 261 262 262 263 264 265
230 230 230 229 230 230 231 232 233 234 235 236 236 237 237 238 239 240 241 242 243 244 246 246 247 248 249 250 252 253 254 255 257 257 258 258 260 261 262 262 263 264 265
233 232 232 231 231 232 232 232 233 235 236 236 236 237 238 239 240 241 242 242 243 244 245 247 248 249 250 251 252 253 254 255 257 258 258 259 260 261 263 263 264 266 267
234 233 233 233 234 234 234 234 234 235 236 237 238 238 239 239 240 241 242 243 244 244 245 247 248 249 251 252 253 253 254 255 257 258 259 260 261 262 264 264 265 266 267
233 233 234 235 235 235 235 235 235 235 236 237 238 239 240 241 241 242 242 243 244 245 246 247 248 249 250 252 254 254 255 256 257 258 260 260 261 263 264 264 264 265 267
234 235 235 236 235 235 236 236 236 236 237 238 238 239 240 241 241 242 242 243 244 245 246 247 248 249 251 252 253 254 255 256 257 258 259 260 261 263 263 263 264 265 267
237 237 237 238 237 236 235 236 236 237 237 238 239 240 240 241 242 242 243 244 245 246 246 247 248 249 250 251 252 253 254 255 256 257 259 260 261 262 262 262 263 265 266
238 238 239 239 238 237 236 236 236 237 237 238 238 239 240 241 242 242 243 244 245 246 246 247 248 249 250 251 252 253 254 254 255 257 258 260 261 260 261 261 262 264 266
237 238 239 239 238 237 237 236 236 236 236 237 237 238 240 241 242 242 243 244 245 246 247 248 249 250 251 252 253 254 254 255 255 256 258 259 260 261 261 262 263 264 266
238 239 239 239 238 237 236 236 235 235 235 236 237 239 240 241 242 243 244 244 246 247 247 248 248 250 251 252 252 253 254 255 255 256 257 258 259 261 261 263 264 265 266
239 240 240 239 237 236 235 235 235 235 236 236 237 239 239 239 241 243 244 245 245 247 248 248 249 250 250 251 251 252 253 254 256 257 258 258 259 260 262 263 264 266 267
241 241 241 240 238 238 236 235 235 235 236 237 238 238 239 239 241 243 244 245 245 247 248 249 249 250 250 249 250 251 253 254 255 257 257 258 259 261 262 263 265 266 268
243 243 243 242 240 240 239 238 238 238 238 238 239 240 240 241 243 244 245 246 247 248 249 250 250 250 250 249 249 251 252 254 255 256 257 258 260 261 263 264 266 268 269
Height
5716 5721 5727 5732 5737 5743 5748 5752 5757 5761 5766 5770 5774 5778 5782 5786 5789 5792 5795 5799 5801 5804 5807 5809 5811 5813 5816 5818 5820 5822 5824 5825 5827 5828 5829 5830 5831 5832 5833 5833 5834 5835 5835
5703 5709 5715 5721 5727 5732 5738 5743 5747 5752 5756 5761 5765 5769 5773 5776 5780 5784 5787 5790 5793 5796 5799 5801 5804 5806 5808 5810 5813 5815 5816 5818 5820 5821 5822 5823 5825 5826 5826 5827 5828 5828 5829
5691 5697 5704 5710 5716 5722 5727 5732 5737 5742 5746 5751 5755 5759 5764 5768 5772 5775 5779 5782 5785 5788 5791 5793 5796 5798 5801 5803 5805 5807 5809 5810 5812 5814 5815 5816 5818 5819 5820 5820 5821 5821 5822
5679 5685 5692 5698 5704 5711 5716 5721 5726 5731 5736 5741 5745 5750 5755 5759 5763 5766 5769 5773 5776 5779 5782 5785 5787 5790 5792 5795 5797 5798 5800 5802 5804 5806 5807 5809 5810 5811 5812 5813 5813 5814 5814
5667 5674 5681 5687 5693 5699 5704 5710 5715 5720 5725 5731 5735 5740 5745 5749 5753 5756 5760 5764 5767 5770 5773 5776 5779 5781 5784 5786 5788 5790 5792 5794 5796 5797 5799 5800 5802 5803 5804 5805 5805 5806 5806
5655 5662 5669 5675 5681 5687 5693 5698 5704 5709 5715 5720 5725 5730 5734 5739 5743 5747 5751 5754 5757 5761 5764 5767 5769 5772 5775 5777 5779 5781 5783 5785 5787 5789 5790 5792 5793 5794 5795 5796 5796 5797 5798
5644 5650 5657 5663 5670 5676 5682 5688 5693 5698 5704 5709 5714 5719 5724 5728 5733 5737 5740 5744 5748 5751 5754 5757 5760 5763 5765 5768 5770 5772 5775 5776 5778 5780 5781 5783 5784 5785 5786 5787 5787 5788 5789
5632 5639 5646 5652 5658 5664 5670 5676 5682 5687 5693 5698 5704 5709 5713 5718 5722 5726 5730 5734 5738 5741 5744 5747 5750 5753 5756 5758 5761 5763 5765 5767 5769 5770 5772 5773 5774 5775 5776 5777 5778 5779 5780
5621 5628 5634 5641 5647 5653 5659 5665 5671 5676 5682 5687 5693 5698 5702 5707 5711 5716 5720 5723 5727 5731 5734 5737 5740 5743 5746 5748 5751 5754 5756 5757 5759 5761 5762 5763 5764 5765 5766 5767 5768 5770 5771
5610 5617 5623 5630 5636 5642 5648 5654 5660 5665 5671 5676 5681 5687 5692 5696 5701 5705 5709 5713 5716 5720 5723 5726 5730 5733 5736 5738 5741 5743 5746 5748 5749 5751 5753 5754 5755 5756 5756 5757 5758 5760 5761
5599 5606 5612 5619 5625 5631 5637 5643 5649 5654 5660 5665 5670 5675 5680 5685 5690 5694 5698 5702 5706 5709 5712 5716 5719 5722 5725 5728 5730 5733 5735 5737 5739 5741 5743 5744 5745 5746 5746 5747 5748 5749 5750
5589 5595 5601 5607 5614 5620 5626 5632 5637 5643 5649 5654 5659 5664 5669 5673 5678 5683 5687 5691 5694 5698 5701 5705 5708 5711 5714 5717 5720 5722 5725 5727 5729 5731 5732 5733 5734 5735 5736 5737 5738 5739 5740
5578 5584 5590 5596 5602 5608 5614 5620 5626 5632 5637 5642 5647 5652 5657 5662 5666 5671 5675 5679 5683 5686 5690 5693 5697 5700 5703 5706 5709 5712 5714 5716 5718 5720 5721 5723 5724 5725 5726 5727 5728 5728 5729
5568 5573 5579 5585 5591 5597 5602 5608 5614 5620 5625 5630 5635 5641 5645 5650 5655 5659 5663 5667 5671 5674 5678 5682 5685 5688 5691 5694 5697 5700 5703 5705 5707 5708 5710 5711 5713 5714 5715 5716 5717 5717 5718
5557 5563 5568 5574 5580 5585 5591 5596 5602 5608 5613 5618 5624 5629 5633 5638 5642 5647 5651 5655 5659 5662 5666 5669 5672 5676 5679 5682 5685 5688 5690 5693 5695 5697 5698 5700 5701 5702 5703 5705 5705 5706 5707
5547 5552 5558 5563 5569 5574 5579 5585 5590 5596 5601 5606 5612 5617 5621 5626 5630 5635 5639 5643 5646 5650 5653 5657 5660 5664 5667 5670 5673 5675 5678 5680 5683 5685 5686 5688 5689 5691 5692 5693 5693 5694 5695
5538 5542 5547 5552 5557 5562 5568 5573 5579 5584 5589 5594 5600 5604 5609 5614 5618 5622 5626 5630 5634 5638 5641 5644 5648 5652 5655 5657 5660 5663 5665 5668 5670 5672 5674 5676 5677 5678 5679 5680 5681 5682 5682
5528 5533 5537 5541 5546 5551 5556 5562 5567 5572 5577 5582 5587 5592 5597 5601 5606 5610 5614 5618 5621 5625 5629 5632 5636 5639 5642 5645 5647 5650 5652 5655 5657 5659 5661 5663 5664 5666 5667 5668 5669 5670 5670
5519 5523 5527 5531 5536 5540 5545 5550 5555 5560 5565 5570 5575 5579 5584 5589 5593 5597 5601 5605 5609 5613 5616 5619 5623 5626 5629 5632 5634 5637 5639 5642 5644 5646 5648 5650 5651 5653 5654 5655 5657 5658 5658
5510 5514 5517 5521 5525 5529 5534 5538 5543 5548 5553 5558 5562 5567 5571 5576 5580 5585 5588 5592 5596 5600 5603 5607 5610 5613 5616 5619 5621 5624 5626 5629 5632 5633 5635 5637 5639 5640 5641 5642 5644 5645 5645
5502 5505 5508 5511 5515 5519 5523 5528 5532 5537 5541 5546 5550 5554 5559 5563 5567 5572 5576 5580 5583 5587 5591 5594 5597 5600 5603 5606 5608 5611 5614 5616 5618 5621 5623 5624 5626 5627 5628 5629 5631 5632 5632
5493 5496 5499 5502 5505 5509 5513 5518 5522 5526 5531 5535 5539 5543 5547 5551 5555 5559 5563 5567 5571 5574 5577 5581 5584 5587 5590 5593 5595 5598 5601 5603 5605 5608 5610 5612 5613 5614 5615 5616 5618 5618 5619
5485 5488 5491 5493 5496 5500 5504 5508 5512 5516 5520 5524 5528 5532 5535 5539 5543 5547 5551 5555 5558 5561 5565 5568 5571 5574 5577 5580 5582 5585 5587 5590 5592 5595 5596 5598 5600 5601 5602 5603 5604 5605 5605
5477 5480 5482 5485 5488 5491 5495 5499 5503 5506 5510 5514 5518 5521 5525 5529 5532 5536 5539 5542 5546 5549 5552 5556 5559 5562 5564 5567 5569 5572 5574 5577 5579 5581 5583 5585 5586 5587 5589 5590 5590 5591 5592
5469 5472 5474 5477 5480 5483 5486 5490 5493 5497 5501 5504 5508 5512 5515 5518 5522 5525 5528 5531 5534 5537 5540 5543 5546 5549 5551 5554 5556 5559 5561 5564 5566 5568 5570 5572 5573 5575 5576 5577 5577 5578 5578
5461 5464 5466 5469 5472 5475 5478 5481 5484 5488 5491 5495 5498 5502 5505 5508 5511 5514 5517 5519 5522 5525 5527 5530 5533 5536 5539 5541 5543 5546 5548 5551 5553 5555 5557 5559 5561 5562 5563 5564 5564 5564 5564